Theta_e
304 301 297 300 301 301 303 303 304 307 312 309 309 310 316 318 319 318 319 321 321 322 325 322 321 322 319 317 314 312 310 309 310 310 310 309 309 310 311 312 314 315 315 316
301 298 303 304 304 308 307 304 302 307 310 309 307 307 311 314 315 315 315 320 321 321 321 321 319 319 318 317 315 312 310 308 308 309 309 309 309 310 310 311 312 314 314 315
300 303 307 306 307 307 304 303 303 304 309 310 306 303 305 312 315 317 317 319 322 321 320 319 317 316 316 316 315 313 310 308 308 309 309 309 309 310 309 310 310 311 313 314
302 304 305 303 304 305 300 308 308 306 300 295 305 292 301 307 308 312 315 315 318 320 321 319 317 315 315 315 316 313 311 309 309 309 308 307 306 305 307 307 308 310 312 312
302 303 301 300 303 308 304 310 306 304 300 299 300 294 297 305 305 308 311 313 316 318 320 318 316 316 317 316 313 312 309 308 308 309 308 307 307 307 308 308 308 309 310 311
302 307 305 304 310 311 311 305 302 300 296 291 296 296 297 301 305 308 312 314 317 315 317 316 315 316 316 313 312 311 309 308 309 309 309 308 308 308 308 308 307 307 308 309
302 304 306 312 307 307 304 298 291 290 290 289 299 297 298 305 308 312 314 314 316 314 313 311 311 314 314 312 311 310 309 308 309 309 309 309 308 308 308 308 307 307 307 307
296 296 303 306 306 303 303 298 292 287 287 290 299 294 301 309 311 314 315 314 312 311 311 310 310 313 313 312 310 310 308 308 308 308 308 309 309 309 309 308 308 308 307 308
299 299 309 309 305 306 302 297 299 295 295 292 295 301 306 309 310 309 307 308 309 310 310 309 309 312 312 311 310 309 308 308 309 308 308 308 309 310 309 309 309 308 308 310
303 298 307 309 308 307 302 302 295 293 288 287 293 296 298 304 307 306 305 306 306 309 310 309 309 311 312 311 310 308 308 308 308 308 308 309 309 310 310 310 310 308 308 308
305 303 302 306 302 301 299 298 296 295 295 290 289 293 306 306 308 307 305 305 307 309 310 309 309 309 310 309 307 308 308 307 307 307 308 309 309 310 311 310 309 309 308 308
306 300 298 300 305 308 301 298 296 292 292 295 293 294 308 309 310 310 306 307 307 310 309 309 308 308 307 306 305 307 307 307 308 308 308 308 309 309 310 310 310 309 309 309
307 299 294 297 301 302 301 301 299 297 297 295 293 294 311 310 310 310 307 306 308 309 308 307 306 306 306 305 305 306 307 307 308 308 308 308 308 308 308 310 311 310 309 309
310 299 297 294 297 299 300 301 301 299 294 295 297 299 306 308 309 310 308 306 307 309 308 306 306 306 306 306 306 307 306 307 308 308 307 307 307 308 308 309 311 311 310 309
304 299 299 300 304 304 303 302 301 299 299 298 299 301 305 309 309 311 309 305 306 307 307 306 306 306 306 306 306 308 307 308 308 308 307 307 308 308 309 310 311 311 311 310
304 298 300 299 305 305 303 304 303 303 305 305 304 303 310 311 309 308 307 306 307 309 309 307 308 308 307 307 307 308 308 309 309 307 307 308 308 309 309 310 311 311 310 310
302 300 297 295 303 302 297 303 303 306 307 306 302 306 310 309 310 310 307 306 307 309 308 308 310 309 309 308 308 307 308 309 308 307 308 309 310 309 310 310 310 310 309 310
300 298 296 293 298 290 301 310 308 308 310 309 309 309 311 311 311 312 311 307 308 308 308 310 309 310 310 309 308 308 308 309 307 307 307 309 310 309 310 309 309 308 309 309
304 301 296 294 293 299 304 309 308 307 306 310 309 312 312 310 312 310 313 310 309 310 311 310 312 310 309 309 309 308 308 308 307 307 307 308 309 309 309 308 309 309 308 308
308 304 300 296 293 292 303 311 314 311 300 311 313 311 310 310 305 308 310 310 310 311 311 312 310 310 309 309 308 308 307 306 306 307 308 309 309 309 309 309 309 309 309 309
301 301 299 296 295 300 308 314 315 299 301 311 312 311 308 308 309 310 309 311 312 312 312 311 310 309 310 310 308 307 306 305 308 309 309 310 310 309 309 309 310 309 308 309
300 299 298 299 295 295 314 314 307 311 311 312 312 312 310 311 311 309 310 311 312 312 312 311 309 309 310 311 308 308 306 309 309 309 309 310 310 309 310 309 309 309 308 308
298 302 301 302 300 308 311 313 318 317 314 312 313 314 313 313 309 309 310 311 312 312 312 312 311 310 311 311 310 309 310 310 310 309 308 309 310 309 310 309 309 308 309 308
306 309 303 304 306 309 313 317 317 316 314 315 317 316 315 313 310 310 310 310 311 312 312 312 311 310 311 311 312 312 313 312 311 309 309 309 308 309 310 310 310 310 309 308
305 309 305 305 309 312 315 316 318 318 318 316 318 318 316 314 312 312 311 311 312 312 312 313 313 313 313 314 313 313 313 313 311 310 309 309 309 310 310 311 311 310 311 309
309 306 304 302 310 312 311 316 320 317 317 316 314 318 319 316 314 313 313 313 312 312 312 312 313 314 315 314 314 315 315 314 312 311 310 309 309 311 311 311 312 302 301 299
Wind_Speed
3 7 1 8 11 4 8 7 7 2 3 7 2 4 5 1 4 6 4 4 4 5 4 4 4 2 5 5 4 6 7 7 5 4 3 3 3 3 4 5 7 7 8 9
5 1 4 4 6 8 7 11 4 4 3 6 2 3 2 4 4 6 5 6 5 4 5 4 4 3 1 1 3 6 6 6 4 3 1 1 2 2 2 3 5 6 9 9
5 4 4 6 5 7 2 7 7 7 5 7 4 3 2 1 3 3 3 3 6 8 8 6 6 5 3 1 1 2 5 6 4 4 2 3 3 2 4 4 3 5 6 7
2 2 4 6 3 3 2 7 8 14 4 2 1 4 4 3 5 5 8 7 8 8 7 6 7 6 4 2 1 1 3 3 4 6 5 5 2 2 2 3 3 4 6 7
6 5 3 4 1 5 1 10 8 5 6 5 1 3 6 2 6 9 8 9 9 9 10 9 7 7 5 4 3 2 2 4 4 4 4 2 2 1 2 2 5 6 5 5
3 2 1 3 6 9 10 9 9 6 4 3 3 4 5 5 8 5 6 8 11 8 8 6 6 7 5 3 3 3 2 2 3 3 3 3 3 4 4 4 3 4 3 4
6 3 3 9 11 1 7 6 4 3 4 5 4 1 9 6 8 9 12 8 8 8 8 7 8 7 6 6 5 4 2 0 2 3 3 3 3 3 3 3 3 4 3 3
3 5 4 3 7 9 6 7 7 3 3 3 1 4 7 6 6 5 6 7 7 10 10 9 7 7 7 7 6 5 4 2 2 3 5 4 3 2 2 2 3 3 3 3
4 4 3 2 3 7 4 2 4 9 3 2 2 7 5 3 1 1 6 7 9 6 4 7 7 7 7 6 7 6 5 3 3 4 4 4 4 3 3 4 3 2 3 3
5 2 0 2 4 6 3 7 4 5 2 2 5 5 7 6 8 6 7 9 8 7 5 5 6 7 6 6 5 5 5 5 4 4 3 3 4 3 3 2 3 3 4 4
5 5 4 2 2 7 1 1 8 6 4 5 2 8 8 10 12 12 10 9 11 9 8 7 6 5 6 4 4 5 5 5 5 4 2 3 3 4 3 2 3 3 3 3
4 5 3 4 3 1 1 3 5 7 4 1 4 9 1 6 7 9 9 10 7 7 7 7 7 6 6 6 5 5 5 5 6 4 3 4 3 3 4 4 3 2 3 2
7 2 3 8 7 3 2 2 5 5 4 5 5 8 1 2 6 7 10 9 8 8 7 7 6 7 6 6 5 5 5 7 6 5 5 4 4 4 4 5 4 3 2 2
9 4 7 9 7 3 3 4 4 5 4 5 7 5 3 4 7 6 8 9 10 11 10 7 6 6 6 6 6 5 6 6 5 5 5 5 5 5 4 5 4 3 2 2
5 3 3 4 3 2 3 4 8 7 5 6 4 7 6 10 12 11 8 6 8 8 9 8 8 7 6 6 6 5 6 5 4 4 5 6 6 5 5 4 4 3 3 3
3 2 1 1 4 5 4 2 7 2 3 2 2 5 6 2 5 5 8 10 11 12 9 11 9 7 7 8 7 6 6 6 4 4 6 5 5 4 5 5 4 3 4 4
3 5 4 4 4 6 5 4 4 4 4 7 4 8 4 4 7 9 9 12 14 11 11 12 11 9 8 8 7 7 6 4 4 5 5 5 4 5 5 4 5 5 5 4
5 5 3 2 4 1 8 4 6 3 2 5 2 4 5 3 1 3 5 9 7 8 11 10 8 7 6 5 6 5 5 5 5 5 5 4 4 5 4 5 6 6 3 4
2 5 4 4 3 5 6 2 2 4 6 3 4 1 3 3 2 4 7 8 10 10 10 8 8 6 6 7 7 6 5 5 5 5 6 6 5 5 5 6 7 4 4 4
6 7 6 2 2 4 5 6 1 3 5 2 1 3 4 2 2 7 4 5 7 8 8 9 8 6 6 6 6 5 6 5 6 6 7 6 6 5 6 5 6 3 4 6
4 4 4 2 2 6 7 4 2 4 9 4 4 4 7 4 6 2 5 4 5 6 9 8 7 9 9 6 6 6 5 7 8 5 5 6 6 6 6 5 3 4 6 6
5 6 3 2 2 7 2 4 3 8 1 4 5 6 7 4 1 3 5 7 9 9 7 8 7 7 6 6 6 7 7 10 5 5 6 6 6 5 4 5 6 5 5 7
1 6 5 9 8 6 3 3 2 4 7 6 4 4 7 5 5 6 6 8 7 8 7 6 8 7 6 6 7 7 11 5 6 5 7 7 6 6 6 5 7 5 4 4
3 3 3 2 2 5 6 4 5 6 7 4 1 6 7 7 8 9 5 5 6 6 7 6 6 6 8 7 8 11 7 5 5 7 8 7 6 8 7 5 5 5 6 5
4 4 4 4 6 4 3 3 3 2 1 3 4 5 10 8 8 9 7 7 6 6 5 6 9 8 11 6 9 9 9 6 7 8 9 9 7 8 8 7 7 6 8 7
5 6 5 7 7 4 4 3 3 6 5 8 8 5 6 7 8 8 7 6 6 6 3 5 5 4 9 5 8 8 7 8 9 8 8 9 8 7 6 6 8 10 16 14
Wind_Direction
351 77 151 235 221 192 121 107 114 71 105 83 18 98 118 200 260 283 234 210 220 145 141 129 116 126 71 42 31 24 29 6 18 17 5 5 355 342 6 10 4 3 2 8
25 43 196 108 93 114 104 117 92 69 56 92 156 96 159 180 222 233 230 197 179 173 168 169 165 163 146 150 35 22 20 24 24 31 340 347 343 357 334 332 356 0 7 1
116 258 318 130 121 114 101 134 169 139 123 51 108 354 292 176 245 266 230 219 191 178 185 191 196 180 181 157 46 35 28 20 32 30 34 15 15 1 354 356 343 346 356 353
220 287 39 97 154 84 118 139 121 125 107 154 27 265 284 256 276 217 213 205 187 187 191 191 195 173 184 185 167 53 31 35 33 25 46 49 48 3 318 305 309 332 356 355
262 340 43 94 51 94 63 101 99 94 92 106 256 69 262 118 267 249 233 206 202 196 190 195 193 174 183 158 184 162 64 42 38 40 49 41 30 323 306 327 343 349 343 354
244 287 165 99 39 94 154 80 46 49 74 46 243 157 268 194 207 236 220 199 195 186 185 186 177 156 161 173 179 170 107 47 27 19 3 16 13 356 4 347 341 333 326 333
346 351 62 105 82 5 92 77 33 340 8 215 201 107 245 235 212 208 197 194 186 179 170 174 175 163 170 200 195 184 189 111 352 341 317 325 325 324 328 321 314 327 331 330
107 351 164 174 161 175 180 150 151 234 211 249 233 226 254 263 256 234 173 176 150 176 171 186 173 169 177 205 197 202 190 231 296 309 295 320 317 298 303 314 318 323 317 310
138 275 303 26 119 125 210 154 159 104 27 35 259 286 299 38 53 147 157 152 175 153 186 181 159 177 187 201 209 198 191 228 250 265 289 311 317 305 284 302 307 314 314 317
207 81 215 188 105 49 132 144 75 38 127 298 287 281 243 198 214 208 188 180 178 182 147 164 181 180 196 202 211 190 193 217 230 243 257 300 312 302 279 292 306 311 312 332
138 113 279 48 178 176 103 35 49 105 122 158 285 267 220 207 190 195 202 190 185 179 171 173 174 188 197 189 205 210 200 223 234 231 246 285 305 301 278 284 294 294 299 327
183 135 162 202 305 347 111 161 132 116 211 144 152 274 92 264 206 174 195 192 185 172 168 170 173 179 175 199 214 220 216 225 228 228 233 252 274 283 281 283 289 302 318 328
187 61 61 355 353 356 210 135 101 102 82 187 139 264 3 277 224 190 180 188 171 163 164 171 161 193 181 203 217 223 231 232 230 217 225 251 262 277 282 277 281 283 309 339
90 114 151 186 205 175 186 165 148 122 122 177 228 280 281 233 218 195 196 190 173 180 182 152 178 206 190 204 207 219 238 235 239 220 221 241 250 257 270 277 271 284 287 302
100 133 156 212 246 227 234 202 173 193 168 164 252 213 259 214 211 207 191 150 163 179 182 163 194 197 199 213 226 232 239 234 228 234 215 232 244 256 274 281 277 280 260 261
10 144 120 325 11 10 268 308 179 149 150 271 128 258 225 214 119 168 181 174 191 200 179 176 196 181 201 208 215 231 241 243 222 240 229 228 229 245 262 273 279 281 271 260
78 119 80 262 3 359 349 285 199 192 178 147 169 234 168 196 215 215 186 190 200 188 170 184 193 190 197 203 203 223 238 243 223 228 236 242 218 240 260 282 288 281 267 249
122 96 92 199 24 318 246 310 235 177 205 193 252 255 212 264 5 112 191 198 198 169 165 188 180 185 199 196 202 218 235 229 220 235 244 244 242 255 266 273 276 273 282 279
71 118 82 118 178 278 308 274 126 177 256 202 230 283 93 100 86 280 210 201 186 171 176 185 176 170 179 195 205 202 226 226 225 239 244 242 237 256 270 274 272 280 276 268
55 70 108 115 138 213 246 318 299 115 303 301 157 202 147 104 22 269 196 154 146 157 156 165 162 160 176 210 187 189 219 219 239 239 240 248 241 237 259 265 277 253 246 268
27 17 109 134 179 277 235 176 300 80 237 204 195 178 158 183 205 281 116 109 145 162 165 146 157 179 203 181 169 211 214 232 234 241 246 254 252 241 241 261 247 275 280 283
155 129 178 99 101 281 29 24 127 212 260 266 192 173 188 215 215 152 152 156 163 160 147 165 162 199 206 186 174 217 224 236 228 239 247 253 252 253 254 251 271 268 271 288
232 176 185 172 213 230 232 221 243 194 192 209 203 185 187 180 176 171 182 173 180 174 170 165 184 202 213 199 195 207 240 219 227 234 244 250 255 255 251 248 265 280 268 258
245 173 183 56 262 229 251 293 254 198 206 150 210 180 163 180 169 190 185 198 184 185 187 173 167 205 232 211 207 223 238 207 218 238 245 249 246 258 258 249 242 252 265 267
197 138 176 260 276 269 267 267 220 171 204 127 185 210 190 178 190 183 184 207 204 200 180 179 193 212 235 219 226 228 229 199 226 232 245 248 244 248 258 252 251 242 246 226
185 187 161 218 214 154 245 301 188 176 204 204 199 216 207 202 211 164 187 201 189 202 159 196 230 243 254 244 244 245 234 213 227 242 245 245 244 247 246 250 278 235 242 253